| time (UTC) | temp C | wind direction | speed KPH | gust KPH | rain 1hr cm | rain 24hr cm | rain mn cm | humidity % | barometer mb |
| 20260510104552 | 10 | 360 | 0.0 | 0.0 | 0.00 | 0.97 | 0.00 | 100 | 1012.9 |
| 20260510104026 | 10 | 360 | 0.0 | 0.0 | 0.00 | 0.97 | 0.00 | 100 | 1013.0 |
| 20260510103607 | 10 | 360 | 0.0 | 0.0 | 0.00 | 0.97 | 0.00 | 100 | 1013.0 |
| 20260510103022 | 10 | 360 | 0.0 | 0.0 | 0.00 | 0.97 | 0.00 | 100 | 1013.0 |
| 20260510102600 | 10 | 360 | 0.0 | 0.0 | 0.00 | 0.97 | 0.00 | 100 | 1012.9 |
| 20260510102010 | 10 | 360 | 0.0 | 0.0 | 0.00 | 0.97 | 0.00 | 100 | 1012.9 |
| 20260510101530 | 10 | 360 | 0.0 | 0.0 | 0.00 | 0.97 | 0.00 | 100 | 1013.1 |
| 20260510101050 | 10 | 360 | 0.0 | 0.0 | 0.00 | 0.97 | 0.00 | 100 | 1013.0 |
| 20260510100610 | 10 | 107 | 0.0 | 1.6 | 0.00 | 0.97 | 0.00 | 100 | 1012.9 |
| 20260510100030 | 10 | 360 | 0.0 | 3.2 | 0.00 | 0.97 | 0.00 | 100 | 1012.8 |
| 20260510095605 | 10 | 360 | 0.0 | 3.2 | 0.00 | 0.97 | 0.00 | 100 | 1012.8 |
| 20260510095037 | 10 | 360 | 0.0 | 4.8 | 0.00 | 0.97 | 0.00 | 100 | 1012.8 |
| 20260510094606 | 10 | 360 | 0.0 | 4.8 | 0.00 | 0.97 | 0.00 | 100 | 1012.6 |
| 20260510094011 | 10 | 360 | 0.0 | 3.2 | 0.00 | 0.97 | 0.00 | 100 | 1012.5 |
| 20260510093550 | 10 | 360 | 0.0 | 3.2 | 0.00 | 0.97 | 0.00 | 100 | 1012.6 |
| 20260510093110 | 10 | 360 | 0.0 | 3.2 | 0.00 | 0.97 | 0.00 | 100 | 1012.6 |
| 20260510092555 | 10 | 99 | 0.0 | 3.2 | 0.00 | 0.97 | 0.00 | 100 | 1012.6 |
| 20260510092045 | 10 | 98 | 0.0 | 3.2 | 0.00 | 0.97 | 0.00 | 100 | 1012.4 |
| 20260510091517 | 10 | 22 | 0.0 | 3.2 | 0.00 | 0.97 | 0.00 | 100 | 1012.2 |
| 20260510091036 | 10 | 360 | 0.0 | 1.6 | 0.00 | 0.97 | 0.00 | 100 | 1012.2 |
| 20260510090559 | 10 | 360 | 0.0 | 3.2 | 0.00 | 0.97 | 0.00 | 100 | 1012.3 |
| 20260510090040 | 10 | 360 | 0.0 | 3.2 | 0.00 | 0.97 | 0.00 | 100 | 1012.5 |
| 20260510085505 | 10 | 120 | 0.0 | 1.6 | 0.00 | 0.97 | 0.00 | 100 | 1012.6 |
| 20260510085038 | 10 | 121 | 0.0 | 3.2 | 0.00 | 0.97 | 0.00 | 100 | 1012.5 |
| 20260510084614 | 10 | 360 | 0.0 | 3.2 | 0.00 | 0.97 | 0.00 | 100 | 1012.6 |
| 20260510084020 | 10 | 360 | 0.0 | 6.4 | 0.00 | 0.97 | 0.00 | 100 | 1012.7 |
| 20260510083601 | 10 | 360 | 0.0 | 6.4 | 0.00 | 0.97 | 0.00 | 100 | 1012.7 |
| 20260510083020 | 10 | 276 | 0.0 | 3.2 | 0.00 | 0.97 | 0.00 | 100 | 1012.6 |
| 20260510082532 | 10 | 288 | 0.0 | 6.4 | 0.00 | 0.97 | 0.00 | 100 | 1012.7 |
| 20260510082053 | 10 | 344 | 1.6 | 6.4 | 0.00 | 0.97 | 0.00 | 100 | 1012.5 |
| 20260510081522 | 10 | 294 | 1.6 | 6.4 | 0.00 | 0.97 | 0.00 | 100 | 1012.5 |
| 20260510081042 | 10 | 105 | 1.6 | 6.4 | 0.00 | 0.97 | 0.00 | 100 | 1012.5 |
| 20260510080516 | 10 | 336 | 1.6 | 16.1 | 0.00 | 0.97 | 0.00 | 100 | 1012.5 |
| 20260510080041 | 10 | 234 | 0.0 | 16.1 | 0.00 | 0.97 | 0.00 | 100 | 1012.6 |
| 20260510075525 | 9 | 350 | 1.6 | 12.9 | 0.00 | 0.97 | 0.00 | 100 | 1012.4 |
| 20260510075053 | 9 | 283 | 3.2 | 12.9 | 0.00 | 0.97 | 0.00 | 100 | 1012.6 |
| 20260510074504 | 9 | 360 | 3.2 | 12.9 | 0.00 | 0.97 | 0.00 | 100 | 1012.4 |
| 20260510074023 | 9 | 304 | 3.2 | 8.0 | 0.00 | 0.97 | 0.00 | 100 | 1012.1 |
| 20260510073544 | 9 | 321 | 0.0 | 0.0 | 0.00 | 0.97 | 0.00 | 100 | 1011.9 |
| 20260510073106 | 9 | 320 | 0.0 | 0.0 | 0.00 | 0.97 | 0.00 | 100 | 1011.9 |
| 20260510072520 | 9 | 321 | 0.0 | 0.0 | 0.00 | 0.97 | 0.00 | 100 | 1011.9 |
| 20260510072102 | 9 | 320 | 0.0 | 0.0 | 0.00 | 0.97 | 0.00 | 100 | 1011.9 |
| 20260510071538 | 8 | 320 | 0.0 | 0.0 | 0.00 | 0.97 | 0.00 | 100 | 1011.9 |
| 20260510071051 | 8 | 321 | 0.0 | 0.0 | 0.00 | 0.97 | 0.00 | 100 | 1011.9 |
| 20260510070527 | 8 | 320 | 0.0 | 1.6 | 0.00 | 0.97 | 0.00 | 100 | 1011.9 |
| 20260510070109 | 8 | 321 | 0.0 | 1.6 | 0.00 | 0.97 | 0.00 | 100 | 1011.9 |
| 20260510065518 | 8 | 320 | 0.0 | 1.6 | 0.00 | 0.97 | 0.00 | 100 | 1012.0 |
| 20260510065038 | 8 | 312 | 0.0 | 3.2 | 0.00 | 0.97 | 0.00 | 100 | 1012.0 |
| 20260510064558 | 8 | 312 | 0.0 | 4.8 | 0.00 | 0.97 | 0.00 | 100 | 1012.1 |
| 20260510064023 | 8 | 11 | 0.0 | 8.0 | 0.00 | 0.97 | 0.00 | 100 | 1012.0 |
| 20260510063544 | 8 | 309 | 1.6 | 11.3 | 0.00 | 0.97 | 0.00 | 100 | 1012.1 |
| 20260510063104 | 8 | 360 | 3.2 | 11.3 | 0.00 | 0.97 | 0.00 | 100 | 1012.2 |
| 20260510062540 | 8 | 292 | 0.0 | 3.2 | 0.00 | 0.97 | 0.00 | 99 | 1012.1 |
| 20260510062011 | 8 | 24 | 0.0 | 0.0 | 0.00 | 0.97 | 0.00 | 99 | 1012.1 |
| 20260510061528 | 8 | 22 | 0.0 | 0.0 | 0.00 | 0.97 | 0.00 | 99 | 1012.1 |
| 20260510061016 | 8 | 23 | 0.0 | 0.0 | 0.00 | 0.97 | 0.00 | 99 | 1011.9 |
| 20260510060546 | 8 | 22 | 0.0 | 0.0 | 0.00 | 0.97 | 0.00 | 99 | 1011.8 |
| 20260510060106 | 8 | 23 | 0.0 | 0.0 | 0.00 | 0.97 | 0.00 | 99 | 1011.7 |
| 20260510055519 | 8 | 20 | 0.0 | 0.0 | 0.00 | 0.97 | 0.00 | 99 | 1011.7 |
| 20260510055035 | 9 | 21 | 0.0 | 0.0 | 0.00 | 0.97 | 0.00 | 99 | 1011.8 |
| 20260510054556 | 9 | 22 | 0.0 | 0.0 | 0.00 | 0.97 | 0.00 | 99 | 1011.8 |
| 20260510054006 | 9 | 360 | 0.0 | 0.0 | 0.00 | 0.97 | 0.00 | 99 | 1011.9 |
| 20260510053525 | 9 | 360 | 0.0 | 0.0 | 0.00 | 0.97 | 0.00 | 99 | 1011.9 |
| 20260510053046 | 9 | 27 | 0.0 | 0.0 | 0.00 | 0.97 | 0.00 | 99 | 1011.9 |
| 20260510052606 | 9 | 28 | 0.0 | 0.0 | 0.00 | 0.97 | 0.00 | 99 | 1012.0 |
| 20260510052016 | 9 | 91 | 0.0 | 0.0 | 0.00 | 0.97 | 0.00 | 99 | 1011.9 |
| 20260510051540 | 9 | 122 | 0.0 | 0.0 | 0.00 | 0.97 | 0.00 | 99 | 1012.0 |
| 20260510051055 | 9 | 360 | 0.0 | 0.0 | 0.00 | 0.97 | 0.00 | 99 | 1011.9 |
| 20260510050506 | 10 | 360 | 0.0 | 0.0 | 0.00 | 0.97 | 0.00 | 99 | 1012.0 |
| 20260510050031 | 10 | 123 | 0.0 | 0.0 | 0.00 | 0.97 | 0.00 | 99 | 1012.0 |
| 20260510045511 | 10 | 121 | 0.0 | 0.0 | 0.00 | 0.97 | 0.00 | 99 | 1012.0 |
| 20260510045046 | 10 | 121 | 0.0 | 0.0 | 0.00 | 0.97 | 0.00 | 99 | 1012.1 |
| 20260510044528 | 10 | 121 | 0.0 | 0.0 | 0.00 | 0.97 | 0.00 | 99 | 1012.1 |
| 20260510044043 | 10 | 121 | 0.0 | 0.0 | 0.00 | 0.97 | 0.00 | 99 | 1012.1 |
| 20260510043502 | 10 | 123 | 0.0 | 0.0 | 0.00 | 0.97 | 0.00 | 99 | 1012.2 |
| 20260510043022 | 10 | 121 | 0.0 | 0.0 | 0.00 | 0.97 | 0.00 | 99 | 1012.2 |
| 20260510042608 | 10 | 121 | 0.0 | 0.0 | 0.00 | 0.97 | 0.00 | 99 | 1012.2 |
| 20260510042022 | 10 | 121 | 0.0 | 0.0 | 0.00 | 0.97 | 0.00 | 99 | 1012.2 |
| 20260510041550 | 10 | 122 | 0.0 | 0.0 | 0.00 | 0.97 | 0.00 | 99 | 1012.2 |
| 20260510041010 | 10 | 122 | 0.0 | 0.0 | 0.00 | 0.97 | 0.00 | 99 | 1012.2 |
| 20260510040538 | 10 | 121 | 0.0 | 0.0 | 0.00 | 0.97 | 0.00 | 99 | 1012.2 |
| 20260510035540 | 10 | 121 | 0.0 | 0.0 | 0.00 | 0.97 | 0.97 | 99 | 1012.3 |
| 20260510035100 | 10 | 122 | 0.0 | 0.0 | 0.00 | 0.97 | 0.97 | 99 | 1012.3 |
| 20260510034515 | 10 | 120 | 0.0 | 0.0 | 0.00 | 0.97 | 0.97 | 99 | 1012.2 |
| 20260510034006 | 10 | 121 | 0.0 | 0.0 | 0.00 | 0.97 | 0.97 | 99 | 1012.1 |
| 20260510033525 | 10 | 121 | 0.0 | 0.0 | 0.00 | 0.97 | 0.97 | 99 | 1012.1 |
| 20260510033139 | 10 | 123 | 0.0 | 0.0 | 0.00 | 0.97 | 0.97 | 99 | 1012.0 |
| 20260510032515 | 10 | 122 | 0.0 | 0.0 | 0.00 | 0.97 | 0.97 | 99 | 1012.1 |
| 20260510032051 | 9 | 360 | 0.0 | 0.0 | 0.00 | 0.97 | 0.97 | 99 | 1012.1 |
| 20260510031525 | 9 | 360 | 0.0 | 0.0 | 0.00 | 0.97 | 0.97 | 99 | 1012.0 |
| 20260510031002 | 9 | 360 | 0.0 | 0.0 | 0.00 | 0.97 | 0.97 | 99 | 1011.9 |
| 20260510030548 | 9 | 360 | 0.0 | 0.0 | 0.00 | 0.97 | 0.97 | 99 | 1011.9 |
| 20260510030108 | 9 | 121 | 0.0 | 0.0 | 0.00 | 0.97 | 0.97 | 99 | 1011.8 |
| 20260510025518 | 9 | 121 | 0.0 | 0.0 | 0.00 | 0.97 | 0.97 | 98 | 1011.9 |
| 20260510025038 | 9 | 122 | 0.0 | 0.0 | 0.00 | 0.97 | 0.97 | 98 | 1011.9 |
| 20260510024557 | 9 | 122 | 0.0 | 0.0 | 0.00 | 0.97 | 0.97 | 98 | 1011.9 |
| 20260510024007 | 9 | 360 | 0.0 | 0.0 | 0.00 | 0.97 | 0.97 | 99 | 1011.8 |
| 20260510023552 | 9 | 123 | 0.0 | 0.0 | 0.00 | 0.97 | 0.97 | 99 | 1011.8 |
| 20260510023026 | 9 | 360 | 0.0 | 0.0 | 0.00 | 0.97 | 0.97 | 98 | 1011.7 |
| 20260510022546 | 9 | 122 | 0.0 | 0.0 | 0.00 | 0.97 | 0.97 | 98 | 1011.7 |
| 20260510022107 | 9 | 122 | 0.0 | 0.0 | 0.00 | 0.97 | 0.97 | 98 | 1011.8 |
| 20260510021540 | 9 | 121 | 0.0 | 0.0 | 0.00 | 0.97 | 0.97 | 97 | 1011.8 |
| 20260510021100 | 9 | 121 | 0.0 | 0.0 | 0.00 | 0.97 | 0.97 | 97 | 1011.8 |
| 20260510020516 | 9 | 122 | 0.0 | 0.0 | 0.00 | 0.97 | 0.97 | 97 | 1011.7 |
| 20260510020030 | 9 | 121 | 0.0 | 0.0 | 0.00 | 0.97 | 0.97 | 97 | 1011.7 |
| 20260510015550 | 9 | 360 | 0.0 | 0.0 | 0.00 | 0.97 | 0.97 | 97 | 1011.8 |
| 20260510015109 | 9 | 360 | 0.0 | 0.0 | 0.00 | 0.97 | 0.97 | 97 | 1011.7 |
| 20260510014522 | 10 | 121 | 0.0 | 0.0 | 0.00 | 0.97 | 0.97 | 97 | 1011.8 |
| 20260510014101 | 10 | 360 | 0.0 | 1.6 | 0.00 | 0.97 | 0.97 | 97 | 1011.6 |
| 20260510013510 | 10 | 121 | 0.0 | 1.6 | 0.00 | 0.97 | 0.97 | 97 | 1011.7 |
| 20260510013045 | 10 | 360 | 0.0 | 0.0 | 0.00 | 0.97 | 0.97 | 97 | 1011.7 |
| 20260510012504 | 10 | 122 | 0.0 | 0.0 | 0.00 | 0.97 | 0.97 | 97 | 1011.6 |
| 20260510012026 | 10 | 360 | 0.0 | 0.0 | 0.00 | 0.97 | 0.97 | 97 | 1011.6 |
| 20260510011545 | 10 | 360 | 0.0 | 0.0 | 0.00 | 0.97 | 0.97 | 96 | 1011.7 |
| 20260510011017 | 10 | 122 | 0.0 | 0.0 | 0.00 | 0.97 | 0.97 | 96 | 1011.6 |
| 20260510010537 | 10 | 360 | 0.0 | 0.0 | 0.00 | 0.97 | 0.97 | 97 | 1011.5 |
| 20260510010104 | 11 | 122 | 0.0 | 1.6 | 0.00 | 0.97 | 0.97 | 96 | 1011.5 |
| 20260510005533 | 11 | 121 | 0.0 | 1.6 | 0.00 | 0.97 | 0.97 | 96 | 1011.4 |
| 20260510005052 | 11 | 360 | 0.0 | 3.2 | 0.00 | 0.97 | 0.97 | 96 | 1011.4 |
| 20260510004502 | 11 | 121 | 0.0 | 3.2 | 0.00 | 0.97 | 0.97 | 96 | 1011.3 |
| 20260510004023 | 11 | 121 | 0.0 | 0.0 | 0.00 | 0.97 | 0.97 | 96 | 1011.3 |
| 20260510003602 | 11 | 120 | 0.0 | 0.0 | 0.00 | 0.97 | 0.97 | 96 | 1011.3 |
| 20260510003018 | 11 | 360 | 0.0 | 0.0 | 0.00 | 0.97 | 0.97 | 96 | 1011.2 |
| 20260510002557 | 11 | 360 | 0.0 | 0.0 | 0.00 | 0.97 | 0.97 | 96 | 1011.2 |
| 20260510002005 | 12 | 121 | 0.0 | 0.0 | 0.00 | 0.97 | 0.97 | 96 | 1011.1 |
| 20260510001528 | 12 | 360 | 0.0 | 0.0 | 0.00 | 0.97 | 0.97 | 96 | 1011.1 |
| 20260510001002 | 12 | 360 | 0.0 | 0.0 | 0.00 | 0.97 | 0.97 | 96 | 1011.1 |
| 20260510000522 | 12 | 360 | 0.0 | 0.0 | 0.00 | 0.97 | 0.97 | 96 | 1011.0 |
| 20260510000100 | 12 | 360 | 0.0 | 3.2 | 0.00 | 0.97 | 0.97 | 95 | 1010.9 |
| 20260509235603 | 12 | 122 | 0.0 | 3.2 | 0.00 | 0.97 | 0.97 | 95 | 1010.8 |
| 20260509235046 | 12 | 360 | 0.0 | 1.6 | 0.00 | 0.97 | 0.97 | 95 | 1011.0 |
| 20260509234506 | 12 | 128 | 0.0 | 4.8 | 0.00 | 0.97 | 0.97 | 95 | 1011.1 |
| 20260509234026 | 12 | 105 | 0.0 | 9.7 | 0.00 | 0.97 | 0.97 | 95 | 1011.0 |
| 20260509233548 | 12 | 116 | 3.2 | 9.7 | 0.00 | 0.97 | 0.97 | 95 | 1011.0 |
| 20260509233001 | 12 | 360 | 0.0 | 3.2 | 0.00 | 0.97 | 0.97 | 95 | 1011.0 |
| 20260509232525 | 12 | 119 | 0.0 | 0.0 | 0.00 | 0.97 | 0.97 | 95 | 1010.9 |
| 20260509232042 | 12 | 120 | 0.0 | 0.0 | 0.00 | 0.97 | 0.97 | 95 | 1011.0 |
| 20260509231604 | 12 | 120 | 0.0 | 1.6 | 0.00 | 0.97 | 0.97 | 95 | 1010.9 |
| 20260509231027 | 12 | 360 | 0.0 | 1.6 | 0.00 | 0.97 | 0.97 | 95 | 1011.0 |
| 20260509230516 | 12 | 119 | 0.0 | 4.8 | 0.00 | 0.97 | 0.97 | 95 | 1010.9 |
| 20260509230100 | 13 | 121 | 1.6 | 4.8 | 0.00 | 0.97 | 0.97 | 95 | 1010.8 |
| 20260509225520 | 13 | 93 | 0.0 | 3.2 | 0.00 | 0.97 | 0.97 | 95 | 1010.7 |
| 20260509225054 | 13 | 122 | 0.0 | 3.2 | 0.00 | 0.97 | 0.97 | 95 | 1010.8 |
| 20260509224538 | 13 | 122 | 0.0 | 3.2 | 0.00 | 0.97 | 0.97 | 95 | 1010.9 |
| 20260509224103 | 13 | 122 | 0.0 | 4.8 | 0.00 | 0.97 | 0.97 | 95 | 1011.0 |
| 20260509223512 | 13 | 123 | 1.6 | 4.8 | 0.00 | 0.97 | 0.97 | 94 | 1011.0 |
| 20260509223039 | 13 | 113 | 1.6 | 9.7 | 0.00 | 0.97 | 0.97 | 95 | 1011.0 |
| 20260509222607 | 13 | 123 | 3.2 | 9.7 | 0.00 | 0.97 | 0.97 | 95 | 1011.0 |
| 20260509222023 | 13 | 129 | 3.2 | 6.4 | 0.00 | 0.97 | 0.97 | 95 | 1011.0 |
| 20260509221508 | 13 | 130 | 0.0 | 6.4 | 0.00 | 0.97 | 0.97 | 95 | 1010.9 |
| 20260509221055 | 13 | 131 | 1.6 | 4.8 | 0.00 | 0.97 | 0.97 | 94 | 1010.9 |
| 20260509220528 | 13 | 126 | 0.0 | 3.2 | 0.00 | 0.97 | 0.97 | 95 | 1010.7 |
| 20260509220022 | 13 | 122 | 0.0 | 3.2 | 0.00 | 0.97 | 0.97 | 95 | 1010.8 |
| 20260509215511 | 13 | 130 | 0.0 | 3.2 | 0.00 | 0.97 | 0.97 | 95 | 1010.6 |
| 20260509215058 | 13 | 130 | 0.0 | 3.2 | 0.00 | 0.97 | 0.97 | 95 | 1010.7 |
| 20260509214536 | 13 | 130 | 0.0 | 3.2 | 0.00 | 0.97 | 0.97 | 95 | 1010.8 |
| 20260509214013 | 13 | 274 | 0.0 | 3.2 | 0.00 | 0.97 | 0.97 | 95 | 1010.9 |
| 20260509213541 | 13 | 360 | 0.0 | 3.2 | 0.00 | 0.97 | 0.97 | 95 | 1010.9 |
| 20260509213029 | 13 | 25 | 0.0 | 3.2 | 0.00 | 0.97 | 0.97 | 96 | 1010.7 |
| 20260509212504 | 13 | 130 | 1.6 | 4.8 | 0.00 | 0.97 | 0.97 | 97 | 1010.9 |
| 20260509212046 | 13 | 157 | 0.0 | 4.8 | 0.00 | 0.97 | 0.97 | 96 | 1011.0 |
| 20260509211507 | 13 | 96 | 0.0 | 3.2 | 0.00 | 0.97 | 0.97 | 97 | 1011.1 |
| 20260509211051 | 13 | 64 | 0.0 | 4.8 | 0.00 | 0.97 | 0.97 | 98 | 1011.0 |
| 20260509210510 | 12 | 299 | 1.6 | 8.0 | 0.03 | 0.97 | 0.97 | 97 | 1011.0 |
| 20260509210041 | 12 | 326 | 1.6 | 8.0 | 0.05 | 0.97 | 0.97 | 97 | 1011.0 |
| 20260509205508 | 12 | 322 | 0.0 | 4.8 | 0.08 | 0.97 | 0.97 | 98 | 1010.9 |
| 20260509205032 | 12 | 294 | 0.0 | 4.8 | 0.08 | 0.97 | 0.97 | 98 | 1011.1 |
| 20260509204557 | 12 | 184 | 0.0 | 3.2 | 0.10 | 0.97 | 0.97 | 98 | 1011.0 |
| 20260509204031 | 12 | 299 | 0.0 | 3.2 | 0.13 | 0.97 | 0.97 | 98 | 1011.0 |
| 20260509203500 | 12 | 360 | 0.0 | 3.2 | 0.13 | 0.97 | 0.97 | 98 | 1011.1 |
| 20260509203046 | 12 | 360 | 0.0 | 3.2 | 0.13 | 0.97 | 0.97 | 98 | 1011.1 |
| 20260509202514 | 12 | 360 | 1.6 | 3.2 | 0.20 | 0.97 | 0.97 | 98 | 1011.1 |
| 20260509202051 | 12 | 360 | 0.0 | 1.6 | 0.20 | 0.97 | 0.97 | 97 | 1011.1 |
| 20260509201519 | 11 | 360 | 0.0 | 1.6 | 0.20 | 0.97 | 0.97 | 97 | 1011.0 |
| 20260509201039 | 11 | 360 | 0.0 | 1.6 | 0.18 | 0.94 | 0.94 | 97 | 1011.1 |
| 20260509200514 | 11 | 360 | 0.0 | 0.0 | 0.20 | 0.94 | 0.94 | 97 | 1011.1 |
| 20260509200111 | 11 | 360 | 0.0 | 0.0 | 0.25 | 0.94 | 0.94 | 97 | 1011.2 |
| 20260509195556 | 12 | 360 | 0.0 | 0.0 | 0.23 | 0.89 | 0.89 | 97 | 1011.3 |
| 20260509195027 | 12 | 360 | 0.0 | 1.6 | 0.25 | 0.89 | 0.89 | 97 | 1011.3 |
| 20260509194552 | 12 | 360 | 0.0 | 1.6 | 0.23 | 0.86 | 0.86 | 97 | 1011.4 |
| 20260509194021 | 12 | 360 | 0.0 | 3.2 | 0.23 | 0.84 | 0.84 | 96 | 1011.5 |
| 20260509193541 | 12 | 360 | 0.0 | 3.2 | 0.23 | 0.84 | 0.84 | 97 | 1011.6 |
| 20260509193014 | 12 | 360 | 0.0 | 3.2 | 0.20 | 0.81 | 0.81 | 97 | 1011.8 |
| 20260509192557 | 12 | 360 | 0.0 | 4.8 | 0.18 | 0.79 | 0.79 | 97 | 1011.9 |
| 20260509192032 | 12 | 360 | 0.0 | 4.8 | 0.18 | 0.76 | 0.76 | 97 | 1011.9 |
| 20260509191550 | 12 | 360 | 0.0 | 4.8 | 0.20 | 0.76 | 0.76 | 97 | 1012.1 |
| 20260509191013 | 12 | 360 | 0.0 | 4.8 | 0.25 | 0.76 | 0.76 | 97 | 1012.1 |
| 20260509190540 | 12 | 360 | 0.0 | 1.6 | 0.28 | 0.71 | 0.71 | 97 | 1012.2 |
| 20260509190006 | 12 | 360 | 0.0 | 6.4 | 0.28 | 0.69 | 0.69 | 96 | 1012.2 |
| 20260509185535 | 12 | 360 | 0.0 | 8.0 | 0.30 | 0.66 | 0.66 | 96 | 1012.3 |
| 20260509185055 | 12 | 360 | 1.6 | 8.0 | 0.33 | 0.64 | 0.64 | 96 | 1012.3 |
| 20260509184504 | 12 | 331 | 0.0 | 4.8 | 0.36 | 0.64 | 0.64 | 96 | 1012.3 |
| 20260509184024 | 12 | 360 | 1.6 | 4.8 | 0.36 | 0.61 | 0.61 | 96 | 1012.4 |
| 20260509183550 | 12 | 360 | 0.0 | 4.8 | 0.38 | 0.61 | 0.61 | 96 | 1012.4 |
| 20260509183019 | 12 | 360 | 0.0 | 3.2 | 0.43 | 0.61 | 0.61 | 96 | 1012.4 |
| 20260509182539 | 12 | 360 | 0.0 | 4.8 | 0.46 | 0.61 | 0.61 | 96 | 1012.5 |
| 20260509182059 | 12 | 360 | 0.0 | 4.8 | 0.46 | 0.58 | 0.58 | 96 | 1012.6 |
| 20260509181509 | 12 | 252 | 0.0 | 4.8 | 0.43 | 0.53 | 0.53 | 96 | 1012.6 |
| 20260509181053 | 12 | 5 | 1.6 | 4.8 | 0.41 | 0.51 | 0.51 | 96 | 1012.6 |
| 20260509180503 | 12 | 29 | 0.0 | 3.2 | 0.38 | 0.46 | 0.46 | 96 | 1012.8 |
| 20260509180025 | 13 | 29 | 0.0 | 3.2 | 0.30 | 0.38 | 0.38 | 96 | 1012.8 |
| 20260509175013 | 13 | 335 | 0.0 | 3.2 | 0.25 | 0.30 | 0.30 | 95 | 1012.4 |
| 20260509174539 | 13 | 229 | 0.0 | 3.2 | 0.23 | 0.28 | 0.28 | 95 | 1012.5 |
| 20260509174005 | 13 | 285 | 0.0 | 1.6 | 0.23 | 0.25 | 0.25 | 94 | 1012.4 |
| 20260509173541 | 13 | 285 | 0.0 | 3.2 | 0.20 | 0.23 | 0.23 | 94 | 1012.4 |
| 20260509173109 | 13 | 285 | 0.0 | 3.2 | 0.20 | 0.20 | 0.20 | 94 | 1012.4 |
| 20260509172541 | 13 | 325 | 0.0 | 1.6 | 0.15 | 0.15 | 0.15 | 93 | 1012.3 |
| 20260509172015 | 13 | 325 | 0.0 | 0.0 | 0.13 | 0.13 | 0.13 | 93 | 1012.2 |
| 20260509171536 | 13 | 325 | 0.0 | 0.0 | 0.10 | 0.10 | 0.10 | 92 | 1012.3 |
| 20260509171054 | 13 | 325 | 0.0 | 3.2 | 0.10 | 0.10 | 0.10 | 92 | 1012.2 |
| 20260509170505 | 13 | 325 | 0.0 | 3.2 | 0.08 | 0.08 | 0.08 | 91 | 1012.3 |
| 20260509170045 | 13 | 250 | 0.0 | 0.0 | 0.08 | 0.08 | 0.08 | 92 | 1012.4 |
| 20260509165509 | 13 | 250 | 0.0 | 3.2 | 0.05 | 0.05 | 0.05 | 91 | 1012.6 |
| 20260509165038 | 13 | 250 | 0.0 | 3.2 | 0.05 | 0.05 | 0.05 | 91 | 1012.5 |
| 20260509164558 | 13 | 192 | 0.0 | 3.2 | 0.05 | 0.05 | 0.05 | 90 | 1012.5 |
| 20260509164009 | 13 | 192 | 0.0 | 4.8 | 0.03 | 0.03 | 0.03 | 89 | 1012.6 |
| 20260509163534 | 13 | 192 | 1.6 | 4.8 | 0.03 | 0.03 | 0.03 | 88 | 1012.6 |
| 20260509163022 | 14 | 169 | 1.6 | 4.8 | 0.00 | 0.00 | 0.00 | 87 | 1012.7 |
| 20260509162550 | 14 | 219 | 1.6 | 6.4 | 0.00 | 0.00 | 0.00 | 86 | 1012.6 |
| 20260509162107 | 14 | 242 | 1.6 | 6.4 | 0.00 | 0.00 | 0.00 | 86 | 1012.6 |
| 20260509161517 | 14 | 232 | 0.0 | 4.8 | 0.00 | 0.00 | 0.00 | 85 | 1012.5 |
| 20260509161036 | 15 | 159 | 1.6 | 6.4 | 0.00 | 0.00 | 0.00 | 85 | 1012.6 |
| 20260509160511 | 15 | 234 | 3.2 | 6.4 | 0.00 | 0.00 | 0.00 | 83 | 1012.7 |
| 20260509160056 | 15 | 189 | 1.6 | 8.0 | 0.00 | 0.00 | 0.00 | 83 | 1012.9 |
| 20260509155535 | 15 | 232 | 3.2 | 6.4 | 0.00 | 0.00 | 0.00 | 83 | 1013.0 |
| 20260509155107 | 15 | 215 | 3.2 | 8.0 | 0.00 | 0.00 | 0.00 | 82 | 1012.8 |
| 20260509154517 | 15 | 238 | 3.2 | 11.3 | 0.00 | 0.00 | 0.00 | 82 | 1012.8 |
| 20260509154056 | 15 | 202 | 3.2 | 11.3 | 0.00 | 0.00 | 0.00 | 83 | 1012.9 |
| 20260509153533 | 15 | 230 | 3.2 | 11.3 | 0.00 | 0.00 | 0.00 | 82 | 1013.0 |
| 20260509153053 | 15 | 217 | 4.8 | 11.3 | 0.00 | 0.00 | 0.00 | 81 | 1013.0 |
| 20260509152502 | 15 | 247 | 3.2 | 8.0 | 0.00 | 0.00 | 0.00 | 82 | 1012.9 |
| 20260509152031 | 15 | 246 | 3.2 | 8.0 | 0.00 | 0.00 | 0.00 | 83 | 1012.9 |
| 20260509151541 | 15 | 175 | 3.2 | 8.0 | 0.00 | 0.00 | 0.00 | 84 | 1012.9 |
| 20260509151100 | 15 | 175 | 3.2 | 8.0 | 0.00 | 0.00 | 0.00 | 84 | 1012.9 |
| 20260509150535 | 15 | 238 | 1.6 | 6.4 | 0.00 | 0.00 | 0.00 | 83 | 1013.0 |
| 20260509145529 | 14 | 159 | 0.0 | 4.8 | 0.00 | 0.00 | 0.00 | 84 | 1012.7 |
| 20260509145049 | 14 | 199 | 1.6 | 4.8 | 0.00 | 0.00 | 0.00 | 84 | 1012.8 |
| 20260509144612 | 14 | 197 | 3.2 | 4.8 | 0.00 | 0.00 | 0.00 | 84 | 1012.8 |
| 20260509144021 | 14 | 219 | 1.6 | 4.8 | 0.00 | 0.00 | 0.00 | 85 | 1012.9 |
| 20260509143539 | 14 | 202 | 3.2 | 6.4 | 0.00 | 0.00 | 0.00 | 86 | 1012.9 |
| 20260509143129 | 14 | 197 | 3.2 | 6.4 | 0.00 | 0.00 | 0.00 | 86 | 1012.8 |
| 20260509142515 | 13 | 175 | 3.2 | 9.7 | 0.00 | 0.00 | 0.00 | 86 | 1012.7 |
| 20260509142055 | 13 | 186 | 3.2 | 9.7 | 0.00 | 0.00 | 0.00 | 86 | 1012.7 |
| 20260509141503 | 13 | 175 | 1.6 | 6.4 | 0.00 | 0.00 | 0.00 | 86 | 1012.6 |
| 20260509141023 | 13 | 194 | 3.2 | 6.4 | 0.00 | 0.00 | 0.00 | 86 | 1012.6 |
| 20260509140543 | 13 | 200 | 3.2 | 6.4 | 0.00 | 0.00 | 0.00 | 87 | 1012.6 |
| 20260509140107 | 13 | 200 | 1.6 | 6.4 | 0.00 | 0.00 | 0.00 | 86 | 1012.5 |
| 20260509135513 | 13 | 203 | 3.2 | 6.4 | 0.00 | 0.00 | 0.00 | 85 | 1012.6 |
| 20260509135037 | 13 | 200 | 3.2 | 9.7 | 0.00 | 0.00 | 0.00 | 85 | 1012.7 |
| 20260509134507 | 13 | 198 | 3.2 | 9.7 | 0.00 | 0.00 | 0.00 | 85 | 1012.7 |
| 20260509134045 | 13 | 214 | 1.6 | 8.0 | 0.00 | 0.00 | 0.00 | 86 | 1012.6 |
| 20260509133522 | 13 | 186 | 4.8 | 8.0 | 0.00 | 0.00 | 0.00 | 85 | 1012.5 |
| 20260509133046 | 13 | 205 | 1.6 | 8.0 | 0.00 | 0.00 | 0.00 | 86 | 1012.4 |
| 20260509132516 | 13 | 207 | 3.2 | 8.0 | 0.00 | 0.00 | 0.00 | 86 | 1012.5 |
| 20260509132013 | 13 | 166 | 3.2 | 6.4 | 0.00 | 0.00 | 0.00 | 86 | 1012.6 |
| 20260509131553 | 13 | 179 | 3.2 | 6.4 | 0.00 | 0.00 | 0.00 | 86 | 1012.7 |
| 20260509131012 | 13 | 200 | 4.8 | 6.4 | 0.00 | 0.00 | 0.00 | 86 | 1012.6 |
| 20260509130539 | 12 | 206 | 1.6 | 8.0 | 0.00 | 0.00 | 0.00 | 86 | 1012.6 |
| 20260509130013 | 12 | 156 | 4.8 | 8.0 | 0.00 | 0.00 | 0.00 | 86 | 1012.7 |
| 20260509125538 | 12 | 162 | 3.2 | 6.4 | 0.00 | 0.00 | 0.00 | 86 | 1012.6 |
| 20260509125101 | 12 | 174 | 1.6 | 6.4 | 0.00 | 0.00 | 0.00 | 86 | 1012.7 |
| 20260509124513 | 12 | 360 | 1.6 | 4.8 | 0.00 | 0.00 | 0.00 | 86 | 1012.6 |
| 20260509124050 | 12 | 360 | 3.2 | 8.0 | 0.00 | 0.00 | 0.00 | 86 | 1012.7 |
| 20260509123525 | 12 | 360 | 1.6 | 4.8 | 0.00 | 0.00 | 0.00 | 86 | 1012.7 |
| 20260509123111 | 12 | 360 | 0.0 | 4.8 | 0.00 | 0.00 | 0.00 | 86 | 1012.8 |
| 20260509122517 | 12 | 360 | 3.2 | 4.8 | 0.00 | 0.00 | 0.00 | 85 | 1012.7 |
| 20260509122049 | 12 | 360 | 1.6 | 4.8 | 0.00 | 0.00 | 0.00 | 85 | 1012.8 |
| 20260509121541 | 11 | 360 | 1.6 | 3.2 | 0.00 | 0.00 | 0.00 | 86 | 1012.7 |
| 20260509121009 | 11 | 178 | 0.0 | 3.2 | 0.00 | 0.00 | 0.00 | 86 | 1012.7 |
| 20260509120534 | 11 | 360 | 0.0 | 3.2 | 0.00 | 0.00 | 0.00 | 86 | 1012.7 |
| 20260509120113 | 11 | 360 | 0.0 | 3.2 | 0.00 | 0.00 | 0.00 | 86 | 1012.7 |
| 20260509115535 | 11 | 360 | 0.0 | 4.8 | 0.00 | 0.00 | 0.00 | 86 | 1012.7 |
| 20260509115105 | 11 | 360 | 1.6 | 4.8 | 0.00 | 0.00 | 0.00 | 86 | 1012.7 |
| 20260509114533 | 11 | 360 | 0.0 | 3.2 | 0.00 | 0.00 | 0.00 | 86 | 1012.8 |
| 20260509114100 | 11 | 360 | 1.6 | 3.2 | 0.00 | 0.00 | 0.00 | 86 | 1012.7 |
| 20260509113515 | 11 | 360 | 0.0 | 3.2 | 0.00 | 0.00 | 0.00 | 87 | 1012.6 |
| 20260509113017 | 11 | 360 | 0.0 | 3.2 | 0.00 | 0.00 | 0.00 | 86 | 1012.6 |
| 20260509112601 | 11 | 360 | 1.6 | 3.2 | 0.00 | 0.00 | 0.00 | 87 | 1012.7 |
| 20260509112037 | 11 | 360 | 0.0 | 1.6 | 0.00 | 0.00 | 0.00 | 87 | 1012.6 |
| 20260509111608 | 11 | 360 | 0.0 | 1.6 | 0.00 | 0.00 | 0.00 | 87 | 1012.6 |
| 20260509111050 | 11 | 360 | 0.0 | 3.2 | 0.00 | 0.00 | 0.00 | 87 | 1012.5 |
| 20260509110526 | 11 | 360 | 0.0 | 3.2 | 0.00 | 0.00 | 0.00 | 87 | 1012.6 |
| 20260509110105 | 11 | 360 | 0.0 | 4.8 | 0.00 | 0.00 | 0.00 | 87 | 1012.6 |
| 20260509105515 | 10 | 360 | 1.6 | 4.8 | 0.00 | 0.00 | 0.00 | 89 | 1012.7 |
| 20260509105102 | 10 | 360 | 0.0 | 3.2 | 0.00 | 0.00 | 0.00 | 90 | 1012.6 |